| time (UTC) | temp F | wind direction | speed knots | gust knots | rain 1hr in | rain 24hr in | rain mn in | humidity % | barometer mb |
| 20260504214042 | 71 | 269 | 3.5 | 5.2 | 0.00 | 0.00 | 0.00 | 35 | 1171.8 |
| 20260504213538 | 72 | 277 | 1.7 | 5.2 | 0.00 | 0.00 | 0.00 | 34 | 1172.0 |
| 20260504213035 | 72 | 294 | 7.0 | 9.6 | 0.00 | 0.00 | 0.00 | 38 | 1172.0 |
| 20260504212531 | 71 | 269 | 1.7 | 7.8 | 0.00 | 0.00 | 0.00 | 39 | 1172.1 |
| 20260504212029 | 71 | 32 | 1.7 | 7.0 | 0.00 | 0.00 | 0.00 | 34 | 1171.9 |
| 20260504211525 | 70 | 261 | 2.6 | 3.5 | 0.00 | 0.00 | 0.00 | 34 | 1172.1 |
| 20260504211022 | 71 | 280 | 6.1 | 8.7 | 0.00 | 0.00 | 0.00 | 34 | 1172.1 |
| 20260504210519 | 72 | 353 | 0.0 | 2.6 | 0.00 | 0.00 | 0.00 | 34 | 1172.0 |
| 20260504210016 | 71 | 248 | 2.6 | 3.5 | 0.00 | 0.00 | 0.00 | 36 | 1172.2 |
| 20260504205514 | 70 | 323 | 2.6 | 2.6 | 0.00 | 0.00 | 0.00 | 35 | 1172.4 |
| 20260504205012 | 71 | 310 | 2.6 | 5.2 | 0.00 | 0.00 | 0.00 | 36 | 1172.1 |
| 20260504204509 | 70 | 252 | 2.6 | 3.5 | 0.00 | 0.00 | 0.00 | 36 | 1172.5 |
| 20260504204008 | 70 | 279 | 1.7 | 7.0 | 0.00 | 0.00 | 0.00 | 35 | 1172.4 |
| 20260504203506 | 70 | 190 | 3.5 | 7.0 | 0.00 | 0.00 | 0.00 | 34 | 1172.5 |
| 20260504203002 | 70 | 304 | 0.0 | 3.5 | 0.00 | 0.00 | 0.00 | 35 | 1172.4 |
| 20260504202458 | 70 | 294 | 3.5 | 6.1 | 0.00 | 0.00 | 0.00 | 35 | 1172.5 |
| 20260504201955 | 69 | 242 | 3.5 | 8.7 | 0.00 | 0.00 | 0.00 | 33 | 1172.6 |
| 20260504201452 | 69 | 250 | 4.3 | 7.8 | 0.00 | 0.00 | 0.00 | 34 | 1172.7 |
| 20260504200950 | 70 | 300 | 5.2 | 7.0 | 0.00 | 0.00 | 0.00 | 33 | 1172.7 |
| 20260504200447 | 69 | 303 | 5.2 | 7.0 | 0.00 | 0.00 | 0.00 | 35 | 1172.6 |
| 20260504195943 | 69 | 306 | 2.6 | 3.5 | 0.00 | 0.00 | 0.00 | 36 | 1172.8 |
| 20260504195439 | 69 | 10 | 2.6 | 5.2 | 0.00 | 0.00 | 0.00 | 35 | 1172.7 |
| 20260504194936 | 69 | 13 | 7.8 | 8.7 | 0.00 | 0.00 | 0.00 | 36 | 1172.9 |
| 20260504194432 | 70 | 349 | 2.6 | 6.1 | 0.00 | 0.00 | 0.00 | 34 | 1172.7 |
| 20260504193928 | 69 | 286 | 2.6 | 5.2 | 0.00 | 0.00 | 0.00 | 36 | 1172.8 |
| 20260504193425 | 69 | 328 | 1.7 | 7.8 | 0.00 | 0.00 | 0.00 | 34 | 1172.8 |
| 20260504192924 | 70 | 6 | 0.0 | 1.7 | 0.00 | 0.00 | 0.00 | 34 | 1172.7 |
| 20260504192421 | 70 | 57 | 1.7 | 3.5 | 0.00 | 0.00 | 0.00 | 34 | 1172.9 |
| 20260504191920 | 69 | 142 | 3.5 | 6.1 | 0.00 | 0.00 | 0.00 | 34 | 1173.0 |
| 20260504191418 | 69 | 61 | 3.5 | 6.1 | 0.00 | 0.00 | 0.00 | 33 | 1172.9 |
| 20260504190912 | 69 | 151 | 3.5 | 5.2 | 0.00 | 0.00 | 0.00 | 34 | 1173.0 |
| 20260504190408 | 68 | 41 | 3.5 | 6.1 | 0.00 | 0.00 | 0.00 | 34 | 1172.9 |
| 20260504185905 | 69 | 89 | 1.7 | 7.0 | 0.00 | 0.00 | 0.00 | 34 | 1173.0 |
| 20260504185402 | 69 | 38 | 4.3 | 7.8 | 0.00 | 0.00 | 0.00 | 34 | 1173.1 |
| 20260504184858 | 68 | 79 | 1.7 | 7.8 | 0.00 | 0.00 | 0.00 | 34 | 1173.0 |
| 20260504184354 | 69 | 27 | 0.9 | 5.2 | 0.00 | 0.00 | 0.00 | 35 | 1172.9 |
| 20260504183850 | 68 | 77 | 2.6 | 5.2 | 0.00 | 0.00 | 0.00 | 33 | 1173.1 |
| 20260504183348 | 68 | 103 | 7.8 | 11.3 | 0.00 | 0.00 | 0.00 | 32 | 1173.0 |
| 20260504182845 | 68 | 73 | 5.2 | 6.1 | 0.00 | 0.00 | 0.00 | 32 | 1172.9 |
| 20260504182343 | 67 | 91 | 1.7 | 7.8 | 0.00 | 0.00 | 0.00 | 35 | 1173.1 |
| 20260504181839 | 68 | 63 | 3.5 | 7.0 | 0.00 | 0.00 | 0.00 | 33 | 1173.1 |
| 20260504181337 | 67 | 146 | 6.1 | 9.6 | 0.00 | 0.00 | 0.00 | 33 | 1173.3 |
| 20260504180836 | 67 | 133 | 4.3 | 7.0 | 0.00 | 0.00 | 0.00 | 35 | 1173.1 |
| 20260504180333 | 67 | 6 | 7.0 | 8.7 | 0.00 | 0.00 | 0.00 | 34 | 1173.3 |
| 20260504175832 | 68 | 25 | 2.6 | 7.8 | 0.00 | 0.00 | 0.00 | 35 | 1173.4 |
| 20260504175328 | 68 | 41 | 3.5 | 7.0 | 0.00 | 0.00 | 0.00 | 35 | 1173.3 |
| 20260504174826 | 67 | 54 | 2.6 | 8.7 | 0.00 | 0.00 | 0.00 | 36 | 1173.1 |
| 20260504174323 | 68 | 39 | 1.7 | 6.1 | 0.00 | 0.00 | 0.00 | 37 | 1173.3 |
| 20260504173820 | 68 | 94 | 3.5 | 6.1 | 0.00 | 0.00 | 0.00 | 36 | 1173.3 |
| 20260504173317 | 68 | 62 | 2.6 | 5.2 | 0.00 | 0.00 | 0.00 | 38 | 1173.1 |
| 20260504172814 | 67 | 18 | 0.9 | 3.5 | 0.00 | 0.00 | 0.00 | 38 | 1173.1 |
| 20260504172310 | 67 | 70 | 3.5 | 7.8 | 0.00 | 0.00 | 0.00 | 37 | 1173.0 |
| 20260504171806 | 65 | 135 | 1.7 | 5.2 | 0.00 | 0.00 | 0.00 | 39 | 1173.0 |
| 20260504171304 | 65 | 52 | 3.5 | 6.1 | 0.00 | 0.00 | 0.00 | 37 | 1173.1 |
| 20260504170801 | 66 | 45 | 2.6 | 7.0 | 0.00 | 0.00 | 0.00 | 36 | 1173.3 |
| 20260504170258 | 66 | 353 | 0.9 | 6.1 | 0.00 | 0.00 | 0.00 | 36 | 1173.1 |
| 20260504160216 | 65 | 58 | 4.3 | 7.0 | 0.00 | 0.00 | 0.00 | 35 | 1173.1 |
| 20260504151144 | 63 | 44 | 1.7 | 3.5 | 0.00 | 0.00 | 0.00 | 38 | 1173.1 |
| 20260504150641 | 63 | 43 | 3.5 | 7.0 | 0.00 | 0.00 | 0.00 | 38 | 1173.0 |
| 20260504150138 | 63 | 37 | 3.5 | 5.2 | 0.00 | 0.00 | 0.00 | 38 | 1173.1 |
| 20260504141107 | 62 | 38 | 0.9 | 5.2 | 0.00 | 0.00 | 0.00 | 40 | 1172.9 |
| 20260504140603 | 61 | 15 | 2.6 | 3.5 | 0.00 | 0.00 | 0.00 | 40 | 1172.7 |
| 20260504130527 | 59 | 36 | 0.9 | 5.2 | 0.00 | 0.00 | 0.00 | 42 | 1172.7 |
| 20260504110415 | 60 | 1 | 1.7 | 3.5 | 0.00 | 0.00 | 0.00 | 40 | 1172.8 |
| 20260504100332 | 61 | 26 | 2.6 | 3.5 | 0.00 | 0.00 | 0.00 | 40 | 1172.9 |
| 20260504081725 | 62 | 28 | 0.9 | 2.6 | 0.00 | 0.00 | 0.00 | 39 | 1173.0 |
| 20260504081222 | 62 | 43 | 1.7 | 1.7 | 0.00 | 0.00 | 0.00 | 39 | 1173.1 |
| 20260504080718 | 62 | 31 | 0.9 | 2.6 | 0.00 | 0.00 | 0.00 | 41 | 1173.1 |
| 20260504080215 | 61 | 26 | 0.9 | 1.7 | 0.00 | 0.00 | 0.00 | 41 | 1173.1 |
| 20260504070142 | 62 | 31 | 3.5 | 3.5 | 0.00 | 0.00 | 0.00 | 43 | 1173.1 |
| 20260504050531 | 63 | 352 | 2.6 | 5.2 | 0.00 | 0.00 | 0.00 | 45 | 1173.5 |
| 20260504045525 | 63 | 343 | 2.6 | 3.5 | 0.00 | 0.00 | 0.00 | 45 | 1173.6 |
| 20260504045020 | 63 | 344 | 3.5 | 3.5 | 0.00 | 0.00 | 0.00 | 45 | 1173.6 |
| 20260504044518 | 64 | 329 | 2.6 | 3.5 | 0.00 | 0.00 | 0.00 | 45 | 1173.6 |
| 20260504044015 | 64 | 337 | 3.5 | 3.5 | 0.00 | 0.00 | 0.00 | 45 | 1173.5 |
| 20260504043512 | 63 | 349 | 3.5 | 3.5 | 0.00 | 0.00 | 0.00 | 45 | 1173.5 |
| 20260504043009 | 63 | 334 | 2.6 | 2.6 | 0.00 | 0.00 | 0.00 | 44 | 1173.6 |
| 20260504042506 | 63 | 339 | 2.6 | 3.5 | 0.00 | 0.00 | 0.00 | 45 | 1173.5 |
| 20260504042003 | 63 | 326 | 3.5 | 3.5 | 0.00 | 0.00 | 0.00 | 44 | 1173.5 |
| 20260504041459 | 63 | 321 | 3.5 | 5.2 | 0.00 | 0.00 | 0.00 | 44 | 1173.5 |
| 20260504040954 | 63 | 338 | 1.7 | 2.6 | 0.00 | 0.00 | 0.00 | 44 | 1173.6 |
| 20260504040453 | 63 | 345 | 2.6 | 2.6 | 0.00 | 0.00 | 0.00 | 44 | 1173.5 |
| 20260504035948 | 64 | 1 | 1.7 | 2.6 | 0.00 | 0.00 | 0.00 | 43 | 1173.6 |
| 20260504035446 | 63 | 15 | 0.0 | 0.0 | 0.00 | 0.00 | 0.00 | 43 | 1173.5 |
| 20260504034942 | 63 | 354 | 0.0 | 0.0 | 0.00 | 0.00 | 0.00 | 43 | 1173.4 |
| 20260504034440 | 63 | 351 | 0.0 | 0.0 | 0.00 | 0.00 | 0.00 | 44 | 1173.3 |
| 20260504033937 | 63 | 357 | 0.0 | 0.0 | 0.00 | 0.00 | 0.00 | 44 | 1173.4 |
| 20260504033434 | 63 | 354 | 0.0 | 0.0 | 0.00 | 0.00 | 0.00 | 44 | 1173.0 |
| 20260504032932 | 63 | 338 | 0.0 | 0.0 | 0.00 | 0.00 | 0.00 | 44 | 1173.3 |
| 20260504032429 | 62 | 355 | 0.0 | 0.0 | 0.00 | 0.00 | 0.00 | 46 | 1173.4 |
| 20260504031925 | 63 | 4 | 0.0 | 0.0 | 0.00 | 0.00 | 0.00 | 46 | 1173.0 |
| 20260504031422 | 63 | 5 | 0.0 | 0.0 | 0.00 | 0.00 | 0.00 | 45 | 1173.0 |
| 20260504030919 | 64 | 6 | 0.0 | 0.0 | 0.00 | 0.00 | 0.00 | 45 | 1173.3 |
| 20260504030416 | 65 | 5 | 0.0 | 0.0 | 0.00 | 0.00 | 0.00 | 44 | 1173.3 |
| 20260504025912 | 65 | 223 | 0.9 | 1.7 | 0.00 | 0.00 | 0.00 | 43 | 1173.3 |
| 20260504025409 | 66 | 204 | 1.7 | 2.6 | 0.00 | 0.00 | 0.00 | 42 | 1173.1 |
| 20260504024906 | 67 | 202 | 3.5 | 3.5 | 0.00 | 0.00 | 0.00 | 40 | 1173.1 |
| 20260504024403 | 69 | 342 | 0.0 | 0.0 | 0.00 | 0.00 | 0.00 | 40 | 1173.1 |
| 20260504023900 | 69 | 315 | 0.0 | 0.0 | 0.00 | 0.00 | 0.00 | 39 | 1173.0 |
| 20260504023356 | 68 | 324 | 0.9 | 0.9 | 0.00 | 0.00 | 0.00 | 38 | 1173.3 |
| 20260504022851 | 68 | 333 | 0.0 | 0.9 | 0.00 | 0.00 | 0.00 | 39 | 1173.0 |
| 20260504022348 | 69 | 228 | 1.7 | 1.7 | 0.00 | 0.00 | 0.00 | 38 | 1173.1 |
| 20260504021845 | 69 | 324 | 0.9 | 2.6 | 0.00 | 0.00 | 0.00 | 39 | 1173.1 |
| 20260504021343 | 69 | 283 | 1.7 | 2.6 | 0.00 | 0.00 | 0.00 | 39 | 1173.3 |
| 20260504020840 | 69 | 222 | 1.7 | 2.6 | 0.00 | 0.00 | 0.00 | 39 | 1173.1 |
| 20260504020336 | 69 | 227 | 1.7 | 5.2 | 0.00 | 0.00 | 0.00 | 38 | 1173.4 |
| 20260504015832 | 69 | 203 | 1.7 | 3.5 | 0.00 | 0.00 | 0.00 | 38 | 1173.1 |
| 20260504015328 | 69 | 224 | 3.5 | 6.1 | 0.00 | 0.00 | 0.00 | 38 | 1173.4 |
| 20260504014825 | 70 | 234 | 2.6 | 3.5 | 0.00 | 0.00 | 0.00 | 39 | 1173.5 |
| 20260504014321 | 70 | 252 | 3.5 | 6.1 | 0.00 | 0.00 | 0.00 | 37 | 1173.4 |
| 20260504013819 | 70 | 297 | 2.6 | 3.5 | 0.00 | 0.00 | 0.00 | 37 | 1173.4 |
| 20260504013316 | 70 | 278 | 3.5 | 5.2 | 0.00 | 0.00 | 0.00 | 36 | 1173.5 |
| 20260504012813 | 70 | 215 | 2.6 | 5.2 | 0.00 | 0.00 | 0.00 | 36 | 1173.5 |
| 20260504012311 | 70 | 209 | 2.6 | 5.2 | 0.00 | 0.00 | 0.00 | 37 | 1173.6 |
| 20260504011808 | 71 | 308 | 5.2 | 7.0 | 0.00 | 0.00 | 0.00 | 36 | 1173.5 |
| 20260504011304 | 71 | 296 | 2.6 | 5.2 | 0.00 | 0.00 | 0.00 | 36 | 1173.4 |
| 20260504010800 | 71 | 244 | 3.5 | 6.1 | 0.00 | 0.00 | 0.00 | 37 | 1173.6 |
| 20260504010256 | 71 | 278 | 3.5 | 6.1 | 0.00 | 0.00 | 0.00 | 37 | 1173.6 |
| 20260504005753 | 70 | 222 | 3.5 | 5.2 | 0.00 | 0.00 | 0.00 | 36 | 1173.7 |
| 20260504005250 | 70 | 206 | 4.3 | 6.1 | 0.00 | 0.00 | 0.00 | 36 | 1173.8 |
| 20260504004748 | 71 | 216 | 6.1 | 8.7 | 0.00 | 0.00 | 0.00 | 35 | 1173.7 |
| 20260504004245 | 71 | 251 | 2.6 | 7.0 | 0.00 | 0.00 | 0.00 | 36 | 1173.8 |
| 20260504003741 | 71 | 299 | 3.5 | 5.2 | 0.00 | 0.00 | 0.00 | 34 | 1173.9 |
| 20260504003238 | 71 | 284 | 2.6 | 5.2 | 0.00 | 0.00 | 0.00 | 35 | 1173.9 |
| 20260504002734 | 71 | 275 | 3.5 | 5.2 | 0.00 | 0.00 | 0.00 | 36 | 1174.0 |
| 20260504002232 | 71 | 215 | 2.6 | 6.1 | 0.00 | 0.00 | 0.00 | 34 | 1174.0 |
| 20260504001729 | 72 | 215 | 5.2 | 7.0 | 0.00 | 0.00 | 0.00 | 36 | 1174.2 |
| 20260504001226 | 71 | 329 | 0.9 | 3.5 | 0.00 | 0.00 | 0.00 | 34 | 1174.2 |
| 20260504000722 | 72 | 250 | 2.6 | 5.2 | 0.00 | 0.00 | 0.00 | 35 | 1174.3 |
| 20260504000219 | 72 | 242 | 3.5 | 7.0 | 0.00 | 0.00 | 0.00 | 35 | 1174.2 |
| 20260503235718 | 71 | 301 | 3.5 | 5.2 | 0.00 | 0.00 | 0.00 | 37 | 1174.3 |
| 20260503235215 | 71 | 212 | 3.5 | 5.2 | 0.00 | 0.00 | 0.00 | 33 | 1174.4 |
| 20260503234712 | 71 | 279 | 2.6 | 8.7 | 0.00 | 0.00 | 0.00 | 35 | 1174.5 |
| 20260503234210 | 71 | 237 | 3.5 | 7.8 | 0.00 | 0.00 | 0.00 | 35 | 1174.4 |
| 20260503233707 | 72 | 342 | 6.1 | 8.7 | 0.00 | 0.00 | 0.00 | 32 | 1174.5 |
| 20260503233202 | 72 | 309 | 2.6 | 3.5 | 0.00 | 0.00 | 0.00 | 32 | 1174.4 |
| 20260503232700 | 71 | 238 | 2.6 | 7.0 | 0.00 | 0.00 | 0.00 | 32 | 1174.5 |
| 20260503232157 | 71 | 277 | 2.6 | 5.2 | 0.00 | 0.00 | 0.00 | 32 | 1174.7 |
| 20260503231655 | 72 | 257 | 5.2 | 6.1 | 0.00 | 0.00 | 0.00 | 33 | 1174.7 |
| 20260503231151 | 72 | 243 | 3.5 | 6.1 | 0.00 | 0.00 | 0.00 | 32 | 1175.1 |
| 20260503230648 | 72 | 329 | 2.6 | 7.0 | 0.00 | 0.00 | 0.00 | 34 | 1174.8 |
| 20260503230146 | 72 | 262 | 4.3 | 5.2 | 0.00 | 0.00 | 0.00 | 34 | 1174.9 |
| 20260503225642 | 72 | 258 | 1.7 | 2.6 | 0.00 | 0.00 | 0.00 | 34 | 1174.7 |
| 20260503225142 | 73 | 269 | 1.7 | 2.6 | 0.00 | 0.00 | 0.00 | 33 | 1175.1 |
| 20260503224640 | 72 | 304 | 2.6 | 3.5 | 0.00 | 0.00 | 0.00 | 31 | 1175.4 |
| 20260503224138 | 71 | 299 | 4.3 | 5.2 | 0.00 | 0.00 | 0.00 | 32 | 1175.2 |
| 20260503223635 | 70 | 303 | 7.8 | 9.6 | 0.00 | 0.00 | 0.00 | 33 | 1175.2 |
| 20260503223131 | 70 | 263 | 7.8 | 9.6 | 0.00 | 0.00 | 0.00 | 34 | 1175.3 |
| 20260503222629 | 72 | 279 | 1.7 | 7.8 | 0.00 | 0.00 | 0.00 | 33 | 1175.5 |
| 20260503222126 | 71 | 302 | 1.7 | 5.2 | 0.00 | 0.00 | 0.00 | 35 | 1175.6 |
| 20260503221625 | 71 | 296 | 6.1 | 7.0 | 0.00 | 0.00 | 0.00 | 32 | 1175.5 |
| 20260503221122 | 71 | 160 | 7.8 | 8.7 | 0.00 | 0.00 | 0.00 | 33 | 1175.6 |
| 20260503220618 | 71 | 351 | 0.0 | 2.6 | 0.00 | 0.00 | 0.00 | 34 | 1175.6 |
| 20260503220115 | 70 | 241 | 2.6 | 6.1 | 0.00 | 0.00 | 0.00 | 33 | 1175.8 |
| 20260503215612 | 70 | 206 | 5.2 | 7.8 | 0.00 | 0.00 | 0.00 | 35 | 1175.7 |
| 20260503215108 | 70 | 223 | 4.3 | 7.0 | 0.00 | 0.00 | 0.00 | 33 | 1176.0 |
| 20260503214607 | 70 | 283 | 6.1 | 7.0 | 0.00 | 0.00 | 0.00 | 33 | 1175.7 |